Wind_Speed
35 36 37 38 40 41 39 34 32 31 31 32 34 36 36 35 34 34 32 30 29 28 27 27 26 25 24 23 22 21 20 18 17 16 15 14 13 11 10 9 9 8 7 6 5 4 4 3 3
38 39 41 42 44 43 39 35 34 33 34 35 36 37 38 37 36 35 34 33 32 31 30 29 28 28 27 25 24 23 22 21 19 18 17 15 14 13 12 11 10 9 8 7 6 5 4 4 4
41 42 44 46 47 44 41 38 36 36 38 38 39 39 40 39 37 36 36 36 35 34 32 31 31 30 29 27 26 25 24 23 22 20 18 17 16 15 13 12 11 10 9 8 7 6 5 4 4
43 45 47 49 48 44 42 41 39 39 40 41 41 42 41 40 39 38 38 38 37 36 35 33 33 32 31 29 28 27 26 25 23 22 20 19 18 17 15 13 12 12 10 9 8 7 6 5 5
45 47 50 51 49 45 45 44 43 41 42 43 43 44 43 41 41 41 40 40 39 39 37 36 34 34 33 32 31 29 28 26 25 23 22 20 19 18 16 15 14 13 12 10 9 7 6 6 6
48 49 51 51 49 47 46 46 46 44 44 45 45 46 44 43 43 43 42 42 41 40 39 38 37 36 35 34 33 31 30 28 26 25 23 21 20 19 18 16 15 14 13 11 10 8 7 7 7
49 50 50 49 49 49 47 47 47 46 46 46 47 47 46 45 45 44 44 44 43 42 41 40 39 37 36 36 34 33 32 30 28 26 25 22 21 20 19 18 16 15 14 13 11 10 9 8 8
48 50 50 48 48 48 47 47 47 47 48 47 49 49 47 47 46 46 45 45 45 44 43 42 41 39 38 37 36 35 34 32 30 28 26 24 22 21 20 19 18 16 15 14 13 11 10 9 9
48 51 50 48 49 48 48 48 47 47 49 49 49 49 48 48 48 47 47 46 46 46 45 44 43 41 40 39 38 37 35 34 32 30 28 26 24 22 21 20 19 17 16 15 14 12 11 11 10
49 51 48 47 48 49 49 49 48 48 49 49 50 50 50 49 49 49 48 47 47 46 46 45 44 43 41 40 39 38 37 36 34 31 29 27 25 24 22 21 20 18 17 16 15 14 12 12 12
48 48 46 46 46 48 48 48 48 48 48 49 50 50 50 51 50 50 50 49 48 47 47 46 45 45 43 41 41 40 39 37 36 33 31 29 27 25 24 22 21 20 18 17 16 14 13 13 13
45 45 44 44 45 46 47 47 47 48 47 48 50 50 50 51 51 51 51 50 49 49 48 48 47 46 45 43 42 41 40 39 37 35 33 31 29 27 25 24 23 21 19 18 17 15 14 14 14
43 43 43 42 44 45 46 45 45 46 47 49 50 50 50 51 51 52 52 52 51 50 49 50 48 47 46 45 43 42 41 40 39 36 34 32 30 28 27 25 24 22 20 19 18 16 15 15 15
40 41 42 41 43 45 44 43 45 44 47 49 50 50 49 50 51 52 52 52 52 51 51 51 50 48 47 46 45 43 42 41 40 38 36 34 32 30 28 27 25 24 22 20 19 18 16 16 16
36 37 39 39 40 42 44 43 43 44 47 48 50 51 50 50 52 52 52 52 52 53 52 52 51 50 48 47 46 44 43 43 41 39 37 35 33 32 30 29 27 25 23 21 20 19 18 17 17
32 35 36 36 37 39 42 42 40 43 47 48 49 51 51 51 52 52 53 53 54 54 53 52 51 50 49 48 47 45 44 43 42 40 39 37 35 33 32 30 28 26 25 23 21 20 19 19 18
30 32 33 34 36 37 39 39 38 40 44 47 48 50 51 51 52 53 53 54 54 55 54 53 52 51 50 49 48 46 45 44 43 41 40 38 36 34 33 31 30 28 26 25 23 22 21 20 20
28 30 30 32 34 35 36 37 37 39 41 45 47 49 51 51 51 53 53 54 55 55 54 54 53 52 50 49 48 47 46 45 43 42 40 39 37 36 34 32 31 29 27 26 24 23 22 22 21
27 28 29 29 31 33 33 33 34 37 38 42 46 48 50 51 52 54 54 54 55 55 55 55 53 52 51 49 48 47 46 45 44 42 41 39 38 37 35 34 32 31 29 27 26 25 24 23 23
25 26 27 28 29 31 32 32 32 35 37 39 44 47 49 51 53 54 53 54 55 55 55 54 53 52 51 50 49 48 47 46 44 43 42 41 39 37 36 35 33 32 30 29 28 26 25 25 24
23 25 25 27 28 29 30 30 29 32 36 38 42 45 48 50 52 54 53 54 54 54 54 54 53 53 52 51 50 49 48 47 45 43 42 41 40 38 37 36 35 33 32 30 29 28 27 26 26
23 24 25 26 27 27 27 28 27 29 34 36 40 43 46 49 51 53 54 54 54 53 53 55 54 53 53 52 51 49 48 46 45 44 43 42 41 39 38 37 35 34 32 31 30 29 28 28 27
22 24 25 25 26 26 25 27 25 26 31 34 38 41 44 47 51 52 54 54 53 54 54 55 54 53 53 53 51 50 49 47 46 45 44 43 42 40 39 38 36 35 34 33 32 31 30 29 29
23 23 25 26 26 28 25 27 24 26 29 32 36 40 43 45 50 51 53 54 54 54 55 55 55 54 53 52 51 50 49 48 47 46 45 44 42 41 40 39 37 36 35 34 33 32 32 31 31
24 24 25 26 27 27 26 27 26 26 28 31 35 38 42 44 47 50 52 53 54 54 54 55 55 54 53 52 52 50 49 48 48 46 45 44 43 42 40 39 38 38 36 35 35 34 33 33 32
24 25 25 26 27 27 26 27 27 27 28 30 33 37 41 44 46 48 50 52 54 54 54 55 55 53 52 52 51 51 50 49 48 47 46 45 44 43 42 41 40 39 38 37 36 36 35 34 34
24 24 25 27 28 28 27 28 27 27 28 30 33 37 40 44 45 47 50 52 54 55 55 55 55 53 53 52 52 51 50 49 48 48 47 46 45 44 43 42 41 41 39 38 37 37 36 36 36
24 24 26 27 28 28 27 27 27 27 30 30 32 36 40 43 45 46 49 51 53 55 55 56 56 56 53 52 51 51 49 49 48 48 47 46 45 44 44 43 42 42 41 40 39 38 37 37 37
24 24 26 28 29 30 30 27 26 27 30 32 33 36 39 41 44 46 49 51 52 54 55 56 56 55 54 52 51 51 50 50 50 49 47 46 46 45 44 44 43 42 41 41 40 39 39 39 39
25 25 26 28 29 31 33 29 27 27 29 32 33 36 37 41 43 45 48 51 53 55 56 56 56 54 53 52 52 52 51 51 51 49 48 47 46 46 45 45 44 43 42 41 41 40 40 40 40
Wind_Direction
264 262 261 259 257 255 256 257 254 249 247 245 243 242 241 241 239 239 237 233 231 231 229 227 226 226 226 225 225 226 227 226 225 227 229 230 232 234 234 231 232 231 229 230 239 249 261 277 294
263 262 260 258 257 257 258 257 254 249 247 245 244 243 241 240 239 238 237 234 232 231 230 228 227 227 227 227 227 227 227 226 226 228 230 231 234 235 234 232 232 228 228 232 239 248 258 271 287
263 261 259 258 258 258 260 258 255 249 246 245 243 243 241 240 239 237 236 234 232 231 230 229 229 228 228 228 228 227 227 227 227 228 231 232 234 235 232 232 232 229 230 232 237 246 256 266 281
263 261 259 258 259 259 259 257 255 250 247 245 244 243 242 240 238 236 235 234 232 231 230 230 230 229 229 229 229 228 227 227 227 229 231 233 235 234 230 230 231 230 230 231 236 243 253 265 281
262 260 259 259 259 258 257 255 253 250 247 245 244 243 241 239 237 235 234 233 232 231 230 230 230 230 230 229 229 228 226 225 227 229 230 232 233 230 229 229 230 229 229 232 236 239 251 267 279
261 259 259 260 258 256 255 253 251 248 247 244 243 242 240 238 236 234 233 231 231 230 230 230 229 229 229 229 228 227 225 225 226 227 229 229 229 228 229 230 230 229 231 233 234 241 254 267 277
261 259 259 259 257 255 254 253 250 247 245 243 242 241 239 237 235 233 232 231 230 229 229 229 229 228 228 227 226 225 224 224 225 226 227 227 227 228 230 229 230 231 231 232 235 243 256 268 276
261 258 258 256 256 254 252 251 249 246 244 241 240 239 237 235 234 232 230 229 228 228 228 228 227 226 226 226 225 224 224 224 224 225 226 226 227 229 229 229 230 231 230 232 237 245 257 268 274
259 257 257 256 255 254 250 250 248 245 242 240 239 238 236 234 233 231 230 228 227 227 226 226 225 225 224 224 224 223 223 223 224 224 225 226 227 229 229 229 229 229 230 234 239 247 257 267 272
258 258 258 257 255 253 251 249 247 245 242 239 237 236 235 233 231 230 229 227 227 226 225 225 225 224 223 223 223 223 223 223 223 224 225 225 226 228 228 228 227 228 231 235 241 248 257 266 272
259 259 258 257 254 253 251 248 245 244 241 239 237 235 234 232 230 228 227 225 225 224 224 223 223 223 223 223 223 223 223 222 222 223 225 225 225 226 227 227 227 229 232 236 242 249 257 265 272
260 258 257 255 253 252 251 249 244 242 240 237 235 234 231 229 227 226 225 223 223 223 222 222 222 222 222 222 222 222 222 222 222 223 225 225 224 225 226 227 227 229 233 237 243 250 257 266 273
260 257 255 253 252 250 250 247 243 240 238 235 233 231 229 227 225 224 223 222 221 221 221 221 221 221 221 221 221 221 221 221 221 223 224 224 224 225 226 226 228 231 234 238 244 251 258 266 273
263 257 253 250 249 248 248 246 242 238 237 235 232 229 228 226 224 224 222 221 220 219 219 220 220 220 220 220 220 220 220 220 221 222 223 223 224 225 226 226 229 232 235 239 245 251 258 266 273
265 258 253 248 247 249 248 246 242 240 238 236 232 229 226 225 223 222 221 219 218 217 218 218 219 219 219 220 219 219 219 220 221 222 223 223 224 225 226 227 230 233 236 240 245 250 257 264 271
267 260 253 247 248 249 248 246 242 241 239 237 232 229 226 223 221 220 219 218 216 216 216 217 218 218 219 219 219 219 219 220 221 222 223 223 224 225 226 228 231 234 237 241 246 251 257 263 270
270 262 254 248 247 248 247 246 243 242 239 236 232 229 225 222 220 218 217 217 216 215 215 215 216 217 218 218 219 220 220 220 221 222 222 223 223 225 226 228 231 234 238 242 246 251 256 262 269
273 265 257 252 248 248 246 247 244 242 238 234 230 227 224 222 219 217 216 216 215 215 215 215 215 216 217 218 220 220 220 221 221 221 222 223 224 225 227 229 231 235 239 243 246 251 256 262 268
275 268 261 254 250 250 249 248 243 240 236 232 229 226 223 220 217 216 215 215 214 215 215 215 215 215 216 218 220 220 220 221 221 222 222 223 225 226 228 229 231 235 239 243 247 251 256 262 268
273 271 264 256 252 251 249 247 242 240 235 230 227 225 222 219 216 215 215 215 214 215 215 214 215 215 217 218 220 221 221 221 222 222 222 224 225 227 229 230 232 236 239 244 247 251 256 262 268
273 271 267 263 256 253 254 251 245 237 232 228 225 223 221 219 216 215 214 214 215 215 215 215 215 216 216 218 219 220 221 222 223 223 223 224 226 228 229 231 233 236 240 244 247 251 257 262 267
274 271 268 266 261 259 257 255 242 236 231 227 224 222 220 219 216 215 214 214 215 215 214 215 216 216 216 217 219 220 222 223 223 223 224 225 226 228 230 232 234 237 240 244 248 252 257 263 267
277 272 270 269 264 262 256 255 243 236 231 226 224 222 220 218 217 216 215 215 216 215 214 215 216 216 216 217 218 220 222 223 223 224 224 225 227 229 231 233 235 238 241 245 248 252 258 263 268
280 274 270 270 266 263 257 253 243 234 229 225 223 222 220 218 217 217 217 216 216 215 214 215 216 216 217 217 217 219 221 223 224 225 225 227 228 230 232 233 236 239 242 245 249 253 258 263 267
280 274 272 273 270 265 258 252 246 234 229 225 222 222 221 219 218 218 218 216 216 216 214 215 215 216 217 218 219 220 222 223 225 226 226 227 229 231 233 234 236 239 243 246 249 253 258 263 267
278 275 269 270 270 267 259 254 249 236 229 225 223 222 221 220 219 218 218 217 215 216 215 215 215 216 218 219 219 220 223 224 226 227 227 229 230 231 233 235 237 240 243 247 251 254 258 263 267
278 274 268 267 269 270 264 257 249 236 229 225 223 221 220 220 219 219 219 218 216 216 216 216 216 217 218 219 220 221 223 225 227 228 229 230 231 232 234 235 238 241 244 247 251 255 259 263 267
280 273 270 268 268 269 267 260 251 240 233 228 226 224 221 221 221 220 219 218 217 217 217 216 217 218 218 219 220 222 224 226 228 229 230 230 231 233 235 237 239 242 245 248 251 256 260 263 266
280 274 269 267 266 265 265 260 249 244 237 232 229 228 224 221 222 222 220 219 218 218 218 217 217 219 219 220 221 223 224 226 228 230 230 231 231 233 235 237 240 243 246 249 252 256 259 263 267
282 277 270 266 265 263 263 260 249 246 239 236 231 229 227 224 222 223 223 221 221 220 220 220 219 220 220 220 222 223 225 227 228 230 231 232 232 234 236 238 241 244 247 250 253 257 260 263 267
Height
5814 5814 5815 5815 5815 5816 5818 5824 5828 5831 5832 5833 5834 5835 5837 5840 5843 5847 5848 5850 5851 5853 5856 5857 5860 5862 5863 5865 5867 5868 5870 5871 5872 5873 5874 5874 5875 5875 5875 5875 5875 5875 5875 5875 5875 5874 5874 5873 5872
5806 5806 5806 5805 5805 5807 5812 5818 5820 5823 5824 5825 5826 5828 5830 5833 5836 5839 5841 5843 5846 5848 5851 5853 5855 5857 5859 5861 5863 5865 5866 5868 5869 5870 5871 5872 5872 5873 5873 5874 5874 5874 5874 5873 5873 5873 5872 5872 5871
5796 5795 5795 5794 5795 5799 5805 5809 5812 5814 5815 5817 5818 5819 5822 5827 5830 5832 5834 5837 5840 5843 5845 5848 5850 5853 5855 5857 5859 5861 5863 5865 5866 5867 5868 5869 5870 5871 5871 5871 5872 5872 5872 5872 5871 5871 5871 5870 5869
5785 5784 5783 5784 5786 5793 5796 5799 5802 5804 5806 5808 5809 5811 5815 5820 5823 5825 5828 5830 5833 5836 5839 5842 5845 5848 5850 5852 5855 5857 5859 5861 5862 5864 5865 5866 5867 5868 5869 5869 5870 5870 5870 5870 5870 5870 5869 5869 5868
5772 5771 5771 5771 5776 5782 5785 5787 5790 5793 5796 5798 5800 5803 5807 5811 5814 5817 5820 5823 5826 5830 5833 5836 5839 5842 5845 5847 5850 5852 5854 5857 5859 5860 5862 5863 5864 5865 5866 5867 5867 5868 5868 5868 5868 5868 5867 5867 5866
5758 5758 5758 5759 5765 5770 5773 5775 5778 5782 5785 5788 5790 5793 5798 5801 5804 5808 5812 5815 5819 5822 5826 5829 5832 5836 5839 5842 5844 5847 5850 5852 5854 5856 5858 5860 5861 5862 5863 5864 5865 5865 5866 5866 5866 5866 5865 5865 5864
5745 5743 5744 5748 5753 5757 5761 5763 5766 5770 5773 5777 5779 5782 5788 5791 5795 5799 5803 5807 5811 5814 5818 5822 5825 5829 5832 5835 5839 5842 5845 5847 5850 5852 5854 5856 5858 5859 5860 5861 5862 5862 5863 5863 5863 5863 5863 5862 5862
5730 5730 5730 5735 5738 5744 5748 5750 5753 5756 5761 5765 5767 5771 5778 5781 5784 5789 5793 5798 5802 5806 5811 5815 5818 5822 5826 5829 5832 5836 5839 5843 5845 5848 5850 5852 5854 5855 5857 5858 5859 5860 5860 5860 5861 5861 5861 5860 5860
5714 5715 5716 5722 5726 5731 5734 5736 5740 5743 5747 5752 5756 5760 5766 5770 5774 5779 5784 5788 5793 5798 5802 5807 5811 5815 5819 5822 5826 5830 5834 5837 5840 5843 5845 5847 5849 5851 5853 5854 5855 5856 5857 5858 5858 5858 5858 5857 5857
5698 5699 5705 5711 5713 5716 5720 5723 5726 5729 5733 5739 5744 5749 5753 5758 5763 5768 5774 5779 5784 5789 5794 5799 5803 5808 5812 5816 5820 5824 5828 5831 5835 5838 5840 5843 5845 5847 5849 5850 5852 5853 5854 5854 5855 5855 5855 5855 5854
5685 5688 5694 5697 5698 5701 5705 5709 5712 5715 5720 5726 5731 5736 5740 5745 5751 5757 5763 5769 5774 5780 5785 5791 5795 5800 5804 5809 5813 5817 5821 5825 5829 5832 5835 5838 5840 5843 5845 5847 5848 5849 5850 5851 5851 5852 5852 5852 5851
5672 5676 5680 5683 5685 5687 5690 5694 5698 5702 5708 5713 5717 5722 5727 5733 5739 5745 5752 5758 5764 5770 5776 5781 5787 5792 5797 5801 5806 5810 5815 5819 5823 5826 5829 5833 5836 5838 5840 5843 5844 5845 5847 5847 5848 5848 5848 5848 5848
5659 5664 5666 5669 5671 5674 5676 5680 5684 5690 5694 5697 5703 5708 5715 5721 5727 5733 5740 5747 5753 5760 5767 5772 5778 5783 5789 5794 5799 5803 5808 5812 5816 5820 5824 5827 5831 5833 5836 5838 5840 5841 5843 5844 5844 5845 5845 5844 5844
5648 5650 5653 5655 5658 5661 5664 5668 5671 5678 5681 5684 5690 5696 5703 5709 5715 5722 5729 5736 5743 5750 5757 5763 5769 5775 5781 5786 5791 5796 5801 5805 5810 5814 5818 5822 5825 5828 5831 5833 5835 5837 5838 5840 5840 5841 5841 5841 5840
5636 5638 5641 5644 5646 5649 5651 5656 5661 5666 5668 5673 5678 5684 5691 5697 5704 5711 5718 5726 5733 5740 5747 5754 5760 5766 5772 5778 5784 5789 5794 5799 5803 5807 5812 5816 5819 5822 5825 5828 5831 5832 5834 5835 5836 5836 5837 5837 5836
5626 5627 5630 5634 5635 5637 5640 5646 5652 5653 5655 5661 5666 5671 5678 5686 5693 5700 5707 5715 5722 5730 5738 5745 5751 5758 5764 5770 5776 5781 5787 5792 5797 5801 5805 5809 5813 5817 5820 5823 5825 5828 5829 5830 5831 5832 5832 5832 5832
5616 5618 5620 5624 5625 5627 5629 5635 5640 5641 5643 5648 5654 5660 5667 5674 5682 5689 5696 5704 5713 5720 5728 5736 5743 5749 5756 5762 5768 5774 5779 5785 5790 5794 5799 5803 5807 5811 5814 5817 5820 5822 5824 5826 5827 5827 5828 5828 5827
5610 5610 5612 5614 5616 5618 5620 5624 5629 5630 5632 5637 5643 5649 5655 5663 5671 5678 5686 5694 5703 5711 5719 5727 5734 5741 5748 5754 5761 5766 5772 5777 5782 5788 5792 5797 5801 5805 5808 5811 5814 5817 5819 5820 5821 5822 5823 5823 5822
5604 5604 5605 5607 5607 5609 5611 5614 5618 5619 5622 5626 5631 5638 5645 5653 5661 5668 5676 5685 5693 5701 5710 5718 5726 5733 5740 5747 5753 5759 5765 5770 5776 5781 5786 5790 5794 5798 5802 5805 5808 5811 5813 5815 5816 5817 5817 5817 5817
5597 5597 5598 5600 5600 5600 5603 5605 5608 5609 5612 5617 5622 5629 5636 5643 5651 5659 5668 5676 5684 5693 5701 5709 5717 5725 5732 5739 5746 5752 5757 5763 5768 5773 5778 5783 5787 5791 5795 5799 5802 5805 5807 5809 5810 5811 5812 5812 5811
5591 5591 5591 5592 5593 5593 5594 5597 5600 5602 5604 5608 5613 5620 5626 5634 5642 5650 5659 5667 5675 5684 5693 5701 5709 5716 5724 5730 5736 5743 5749 5755 5761 5766 5771 5776 5780 5785 5789 5792 5795 5798 5801 5802 5804 5805 5806 5806 5805
5586 5586 5585 5585 5585 5586 5588 5588 5594 5595 5598 5601 5606 5612 5619 5626 5634 5641 5650 5658 5667 5676 5684 5692 5700 5708 5715 5722 5729 5736 5743 5749 5755 5759 5764 5769 5773 5778 5781 5785 5789 5791 5794 5796 5797 5798 5799 5799 5799
5581 5581 5580 5580 5579 5581 5583 5582 5588 5589 5592 5596 5601 5606 5612 5619 5626 5633 5641 5650 5658 5666 5675 5683 5691 5699 5706 5714 5721 5728 5735 5741 5746 5751 5756 5761 5766 5770 5774 5778 5782 5785 5787 5789 5791 5792 5793 5793 5793
5576 5576 5575 5575 5575 5576 5578 5578 5581 5583 5586 5590 5595 5600 5606 5613 5620 5627 5634 5641 5649 5657 5666 5675 5683 5691 5698 5706 5713 5720 5727 5733 5738 5743 5749 5754 5758 5763 5767 5771 5774 5777 5780 5782 5783 5785 5786 5786 5786
5572 5571 5570 5569 5569 5571 5572 5573 5576 5578 5581 5585 5589 5594 5600 5606 5612 5619 5626 5634 5642 5649 5658 5667 5675 5683 5691 5698 5705 5713 5719 5724 5730 5735 5740 5746 5751 5755 5760 5763 5767 5770 5772 5774 5776 5777 5778 5779 5779
5567 5567 5567 5566 5565 5565 5566 5568 5572 5573 5576 5579 5583 5588 5593 5599 5605 5611 5618 5626 5634 5642 5650 5658 5666 5675 5683 5690 5698 5704 5710 5716 5721 5727 5732 5738 5743 5747 5751 5755 5758 5762 5764 5766 5768 5770 5771 5771 5771
5562 5561 5562 5561 5559 5559 5560 5562 5566 5568 5570 5573 5576 5581 5586 5591 5597 5603 5610 5618 5626 5634 5642 5650 5658 5667 5675 5682 5689 5696 5702 5708 5714 5719 5724 5729 5734 5738 5742 5746 5750 5753 5756 5759 5760 5762 5763 5764 5764
5558 5556 5556 5555 5553 5553 5554 5557 5559 5561 5564 5567 5571 5574 5579 5585 5590 5596 5602 5609 5617 5625 5633 5641 5650 5658 5665 5673 5680 5687 5693 5699 5705 5710 5716 5721 5725 5729 5734 5738 5742 5745 5748 5750 5752 5754 5755 5755 5755
5552 5551 5550 5548 5548 5548 5547 5553 5553 5555 5558 5561 5564 5568 5572 5578 5583 5588 5594 5601 5608 5616 5624 5633 5641 5649 5656 5664 5671 5678 5684 5690 5696 5701 5707 5712 5716 5721 5725 5730 5733 5737 5740 5742 5744 5746 5747 5747 5747
5545 5545 5543 5543 5542 5541 5540 5546 5547 5549 5551 5554 5557 5560 5564 5569 5575 5581 5586 5593 5600 5608 5615 5623 5631 5639 5647 5654 5662 5669 5675 5681 5687 5693 5698 5703 5708 5712 5717 5721 5725 5728 5731 5733 5736 5737 5738 5738 5738